Flag for United Kingdom Weather past 2 weeks in Cambridge, England, United Kingdom

Now
72 °F

Passing clouds.


Feels Like: 76 °F
Forecast: 55 / 72 °F
Wind: 3 mph from North

Location: Cambridge Airport

Current Time: Sep 16, 2014 at 5:09:05 PM

Latest Report: Sep 16, 2014 at 4:20 PM


Visibility: N/A

Pressure: 29.95 "Hg

Humidity: 61%

Dew point: 57 °F

Location of CambridgeLocation

Historic Weather in Cambridge — Graph

°F

Cambridge temperature yesterday

Maximum temperature yesterday: 70 °F (at 2:20 PM)
Minimum temperature yesterday: 57 °F (at 5:50 AM)
Average temperature yesterday: 63 °F

Past Weeks' High & Low Weather Summary

 TemperatureHumidityPressure
High73 °F (Sep 16, 2:50 PM)100% (Sep 2, 5:50 AM)30.36 "Hg (Sep 2, 5:50 AM)
Low43 °F (Sep 8, 6:50 AM)43% (Sep 9, 2:50 PM)29.92 "Hg (Sep 6, 5:20 AM)
Average62 °F77%30.13 "Hg
* Reported Sep 1 3:20 PM — Sep 16 3:50 PM, Cambridge, Weather by CustomWeather, © 2014

Note: Actual official high and low records may vary slightly from our data, if they occured in-between our weather recording intervals... More about our weather records

Advertising

Cambridge weather history for previous 24 hours

 ConditionsComfort  
Time TempWeatherWind HumidityBarometerVisibility
3:50 PM
Sep 16
72 °FPassing clouds.5 mph61%29.95 "HgN/A
3:20 PM72 °FPassing clouds.6 mph61%29.95 "Hg6 mi
2:50 PM73 °FPassing clouds.5 mph61%29.95 "Hg5 mi
2:20 PM72 °FPassing clouds.5 mph65%29.98 "Hg5 mi
1:50 PM72 °FPassing clouds.5 mph65%29.98 "Hg5 mi
1:20 PM70 °FPassing clouds.5 mph69%29.98 "Hg5 mi
12:50 PM70 °FScattered clouds.6 mph73%29.98 "Hg4 mi
12:20 PM68 °FScattered clouds.7 mph78%29.98 "Hg4 mi
11:50 AM66 °FPartly sunny.6 mph88%30.01 "Hg4 mi
11:20 AM63 °FFog.7 mph100%30.01 "Hg3 mi
10:20 AM59 °FFog.6 mph100%30.01 "Hg1 mi
9:50 AM57 °FFog.5 mph100%30.01 "Hg1 mi
9:20 AM55 °FFog.5 mph100%30.01 "Hg1 mi
8:50 AM55 °FFog.5 mph94%30.01 "Hg1 mi
8:20 AM54 °FFog.3 mph100%30.01 "Hg0 mi
7:50 AM54 °FFog.3 mph94%30.01 "Hg0 mi
7:20 AM52 °FFog.6 mph100%30.01 "Hg0 mi
6:50 AM52 °FFog.3 mph100%30.01 "Hg0 mi
6:20 AM52 °FFog.3 mph100%29.98 "Hg0 mi
5:50 AM52 °FFog.2 mph100%30.01 "Hg0 mi
6:50 PM
Sep 15
64 °FScattered clouds.1 mph83%30.01 "HgN/A
6:20 PM64 °FPartly sunny.5 mph78%29.98 "HgN/A
5:50 PM66 °FPartly sunny.6 mph73%29.98 "HgN/A
5:20 PM68 °FPartly sunny.3 mph69%29.98 "HgN/A
Weather by CustomWeather, © 2014

See weather overviewHow to use our weather pages